INMARSAT 5-F1

Last updated on Mon Dec 15 2025 00:02:55 GMT+0000 (Coordinated Universal Time)

1 39476U 13073A 25348.19350067 .00000045 00000+0 00000+0 0 9993 2 39476 0.0182 0.0689 0000286 203.5698 11.7683 1.00270899 43722
UTC large
Height (km)
Speed (km/s)
/
Latitude / Longitude
Inclination (degrees)
Orbital Period (minutes)
Azimuth
Elevation
Range (km)
Doppler Factor

Next 0 passes for location: London (51.5072 / 0.1276)

Sorry there are no passes over London.